This is the latest recevied weather packets stored in our database for station/object KB3GVC-13. If no packets are shown the sender has not sent any weather packets the latest 10 day(s).
| Time | Temp. | Humidity | Pressure | Rain* | Wind** | Luminosity | Snow |
|---|---|---|---|---|---|---|---|
| 1777997899 | 25.56° C | 47% | 1012.3 hPa | 0 mm | - | - | - |
| 1777997596 | 26.11° C | 45% | 1012.5 hPa | 0 mm | - | - | - |
| 1777997293 | 26.11° C | 47% | 1012.4 hPa | 0 mm | - | - | - |
| 1777996991 | 25.56° C | 47% | 1012.5 hPa | 0 mm | - | - | - |
| 1777996688 | 25.56° C | 46% | 1012.6 hPa | 0 mm | - | - | - |
| 1777996383 | 25.56° C | 47% | 1012.5 hPa | 0 mm | - | - | - |
| 1777996080 | 25.56° C | 48% | 1012.6 hPa | 0 mm | - | - | - |
| 1777995777 | 25° C | 47% | 1012.6 hPa | 0 mm | - | - | - |
| 1777995473 | 25° C | 48% | 1012.5 hPa | 0 mm | - | - | - |
| 1777995170 | 25° C | 46% | 1012.6 hPa | 0 mm | - | - | - |
| 1777994868 | 25° C | 46% | 1012.6 hPa | 0 mm | - | - | - |
| 1777994564 | 24.44° C | 48% | 1012.8 hPa | 0 mm | - | - | - |
| 1777994264 | 24.44° C | 47% | 1012.8 hPa | 0 mm | - | - | - |
| 1777993961 | 24.44° C | 47% | 1012.9 hPa | 0 mm | - | - | - |
| 1777993659 | 23.89° C | 49% | 1012.6 hPa | 0 mm | - | - | - |
| 1777993356 | 23.89° C | 48% | 1012.7 hPa | 0 mm | - | - | - |
| 1777993056 | 24.44° C | 49% | 1012.8 hPa | 0 mm | - | - | - |
| 1777992754 | 23.89° C | 48% | 1013 hPa | 0 mm | - | - | - |
| 1777992451 | 23.89° C | 48% | 1012.9 hPa | 0 mm | - | - | - |
| 1777992150 | 23.89° C | 49% | 1012.9 hPa | 0 mm | - | - | - |
| 1777991846 | 23.33° C | 49% | 1012.7 hPa | 0 mm | - | - | - |
| 1777991544 | 22.78° C | 49% | 1012.8 hPa | 0 mm | - | - | - |
| 1777991241 | 23.33° C | 49% | 1013 hPa | 0 mm | - | - | - |
| 1777990938 | 22.78° C | 49% | 1012.9 hPa | 0 mm | - | - | - |
| 1777990636 | 22.78° C | 50% | 1012.8 hPa | 0 mm | - | - | - |
* Rain latest hour (hover to see other rain measurements)
** Current wind speed in m/s (hover to see current wind gust speed)